Skip Page Navigation
NASA JPL Caltech
NASA Logo - Jet Propulsion Laboratory + View the NASA Portal
+ Center for Near-Earth Object Studies
JPL Home Earth Solar System Stars & Galaxies Technology
JPL Solar System Dynamics
BODIES ORBITS EPHEMERIDES TOOLS PHYSICAL DATA DISCOVERY FAQ SITE MAP
JPL Small-Body Database Browser
Search: [ help ]  
233865 (2008 VL70)
Classification: Main-belt Asteroid          SPK-ID: 2233865
Ephemeris | Orbit Diagram | Orbital Elements | Mission Design | Physical Parameters | Discovery Circumstances ]

[ show orbit diagram ]
Orbital Elements at Epoch 2459000.5 (2020-May-31.0) TDB
Reference: JPL 11 (heliocentric ecliptic J2000)
 Element Value Uncertainty (1-sigma)   Units 
e .02741587824161467 5.7504e-08  
a 2.763446760660371 2.5395e-08 au
q 2.687684440742922 1.5868e-07 au
i 1.898035650411545 6.5927e-06 deg
node 160.823212545388 0.00017864 deg
peri 2.814384680453838 0.00021155 deg
M 81.81676738816449 0.0001134 deg
tp 2458619.157775548394
(2019-May-15.65777555)
0.00052766 TDB
period 1677.934794847902
4.59
2.3129e-05
6.332e-08
d
yr
n .2145494575268239 2.9574e-09 deg/d
Q 2.839209080577821 2.6091e-08 au
  Orbit Determination Parameters
   # obs. used (total)      212  
   data-arc span      8417 days (23.04 yr)  
   first obs. used      1996-02-10  
   last obs. used      2019-02-26  
   planetary ephem.      DE431  
   SB-pert. ephem.      SB431-N16  
   condition code      0  
   norm. resid. RMS      .52446  
   source      ORB  
   producer      Otto Matic  
   solution date      2019-Jul-14 12:18:32  

Additional Information
 Earth MOID = 1.69424 au 
 Jupiter MOID = 2.12332 au 
 T_jup = 3.339 
[ show covariance matrix ]

Ephemeris | Orbit Diagram | Orbital Elements | Mission Design | Physical Parameters | Discovery Circumstances ]

Physical Parameter Table
Parameter Symbol Value Units Sigma Reference Notes
absolute magnitude H 16.7   n/a MPO427345  

233865 (2008 VL70)          Discovered 2008-Nov-07 by Mt. Lemmon Survey at Mount Lemmon
Reference: 20100228/Numbers.arcLast Updated: 2010-03-03

Alternate Designations
 2008 VL70 = 2001 FG180 = 2006 JC25 
Ephemeris | Orbit Diagram | Orbital Elements | Mission Design | Physical Parameters | Discovery Circumstances ]
ABOUT SSD CREDITS/AWARDS PRIVACY/COPYRIGHT GLOSSARY LINKS
FirstGov 2020-Jul-13 05:14 UT
(server date/time)  
NASA Home Page
Site Manager:   Ryan S. Park
Webmaster  Alan B. Chamberlin